Location: Prairie View Elementary School
(39.8322°N, 99.5698°W)
Time: 12:01:49
(UTC+00:00)

SL-16 R/B - Pass Details

Date: 08 December 2019
Orbit: 840 x 849 km, 71.0° (Epoch: 26 January)

Event Time Altitude Azimuth Distance (km) Brightness Sun altitude
Rises 02:32:12 0° 236° (SW) 3,394 6.0 -37.4°
Reaches altitude 10° 02:35:03 10° 249° (WSW) 2,464 5.3 -37.9°
Enters shadow 02:39:13 26° 296° (WNW) 1,630 4.1 -38.7°
